Preview of NWS' New Version of Forecast
This preview is not operational and should not be used for support decisions.

Regional Weather Roundup (RWR)

Issued by National Weather Service (NWS)

                            
000
ASUS43 KMKX 181459
RWRWI 

WISCONSIN REGIONAL WEATHER ROUNDUP
NATIONAL WEATHER SERVICE MILWAUKEE/SULLIVAN WI
1000 AM CDT THU APR 18 2019

NOTE: "FAIR" INDICATES FEW OR NO CLOUDS BELOW 12,000 FEET WITH NO
SIGNIFICANT WEATHER AND/OR OBSTRUCTIONS TO VISIBILITY.

WIZ001-002-006>008-014>016-023>028-181600-
NORTHWEST WISCONSIN
  
CITY           SKY/WX    TMP DP  RH WIND       PRES   REMARKS
SUPERIOR ARPT  DRIZZLE   40  38  91 N8        29.80R WCI  35          
ASHLAND        CLOUDY    39  37  92 N9        29.76R WCI  33          
HAYWARD        LGT RAIN  37  36  96 N7        29.76R FOG     WCI  32  
SIREN          CLOUDY    39  36  89 N6        29.79R WCI  35          
CUMBERLAND     CLOUDY    36  34  93 N12       29.77R FOG     WCI  27  
RICE LAKE      CLOUDY    38  31  74 NW9       29.77S WCI  32          
CHETEK         CLOUDY    37  35  90 N7        29.75R WCI  32          
LADYSMITH      CLOUDY    38  36  90 N12       29.73S WCI  31          
EAU CLAIRE     NOT AVBL                                               
MENOMONIE      CLOUDY    37  32  82 NW16      29.76R WCI  27          
NEW RICHMOND   CLOUDY    41  35  79 N15       29.78R                  
OSCEOLA        CLOUDY    42  37  84 N10       29.82R                  
$$
 
WIZ003>005-009-010-017-018-181600-
NORTH CENTRAL WISCONSIN
  
CITY           SKY/WX    TMP DP  RH WIND       PRES   REMARKS
MANITOWISH WTR CLOUDY    35  35 100 N7        29.68R FOG     WCI  29  
ARBOR VITAE    CLOUDY    37  35  94 N8        29.65R FOG     WCI  30  
WOODRUFF       CLOUDY    37  35  94 N8        29.65R FOG     WCI  30  
RHINELANDER    NOT AVBL                                               
EAGLE RIVER    DRIZZLE   35  35 100 N8        29.63R WCI  28          
LAND O LAKES   CLOUDY    35  35 100 N12       29.66R FOG     WCI  27  
PHILLIPS       CLOUDY    35  35 100 N6        29.68S WCI  30          
TOMAHAWK       CLOUDY    35  33  93 NW7       29.66R WCI  29          
MEDFORD        CLOUDY    34  33  95 N10       29.66R WCI  26          
MERRILL        CLOUDY    37  36  95 N8        29.65R WCI  31          
$$
 
WIZ029-030-035-036-043>047-181600-
CENTRAL WISCONSIN
  
CITY           SKY/WX    TMP DP  RH WIND       PRES   REMARKS
WAUSAU         NOT AVBL                                               
MOSINEE        CLOUDY    37  36  93 N10       29.64R WCI  30          
MARSHFIELD     CLOUDY    39  39 100 N13G24    29.64R WCI  32          
STEVENS POINT  CLOUDY    37  37 100 N10       29.63S WCI  29          
WAUPACA        CLOUDY    42  38  85 N9        29.60R                  
WAUTOMA        NOT AVBL                                               
WISC RAPIDS    NOT AVBL                                               
CAMP DOUGLAS   NOT AVBL                                               
$$
 
WIZ011>013-019>022-031-037>040-048>050-181600-
NORTHEAST WISCONSIN
  
CITY           SKY/WX    TMP DP  RH WIND       PRES   REMARKS
ANTIGO         CLOUDY    35  34  96 N13       29.61R WCI  26          
SHAWANO        CLOUDY    41  39  93 NW9       29.60S                  
OCONTO         CLOUDY    39  36  89 NW6       29.59R WCI  34          
STURGEON BAY   NOT AVBL                                               
GREEN BAY      CLOUDY    41  37  86 NW7       29.59R                  
MANITOWOC      NOT AVBL                                               
APPLETON       CLOUDY    39  39 100 N14       29.57S WCI  31          
CLINTONVILLE   CLOUDY    40  36  87 NW10      29.60R WCI  33          
OSHKOSH        CLOUDY    42  39  89 N12       29.60R                  
$$
 
WIZ032>034-041-042-053>061-181600-
SOUTHWEST WISCONSIN
  
CITY           SKY/WX    TMP DP  RH WIND       PRES   REMARKS
LA CROSSE      CLOUDY    42  34  73 N18G24    29.71R                  
SPARTA         CLOUDY    38  35  89 N9        29.69R WCI  31          
VIROQUA        CLOUDY    38  38 100 NW15      29.68R WCI  30          
BOSCOBEL       CLOUDY    44  36  73 N12G20    29.70R                  
PRAIRIE DU CHI CLOUDY    44  36  74 NW9       29.70R                  
PLATTEVILLE    CLOUDY    44  43  97 NW17      29.66R                  
$$

WIZ056-057-062-063-064-067-068-181600-
SOUTH CENTRAL WISCONSIN
  
CITY           SKY/WX    TMP DP  RH WIND       PRES   REMARKS
REEDSBURG      CLOUDY    40  38  94 NW10      29.66R WCI  34          
BARABOO/DELLS  CLOUDY    41  37  87 NW5       29.64R                  
LONE ROCK      NOT AVBL                                               
MINERAL POINT  CLOUDY    45  45 100 NW10G22   29.65R                  
MADISON        CLOUDY    43  39  86 NW13G22   29.63R                  
MIDDLETON      CLOUDY    44  41  89 NW12      29.63R                  
WATERTOWN      CLOUDY    44  44  98 NW15      29.59R                  
MONROE         CLOUDY    45  43  93 MISG      29.62R                  
JANESVILLE     CLOUDY    48  48 100 NW10      29.60R                  
$$
 
WIZ051-052-058>065-066-070>072-181600-
SOUTHEAST WISCONSIN
  
CITY           SKY/WX    TMP DP  RH WIND       PRES   REMARKS
MILWAUKEE      CLOUDY    50  43  77 NW13      29.58R                  
WAUKESHA       CLOUDY    45  41  87 NW14      29.59R                  
MILWAUKEE/TIMM CLOUDY    46  39  76 W7        29.58R                  
RACINE         CLOUDY    50  44  80 NW8       29.61R                  
KENOSHA        CLOUDY    51  48  89 NW9       29.59R                  
FOND DU LAC    CLOUDY    42  40  92 NW15      29.60R                  
SHEBOYGAN      CLOUDY    46  42  86 NW9       29.57R                  
WEST BEND      CLOUDY    43  43 100 NW16      29.58R                  
JUNEAU         CLOUDY    42  40  91 NW10G18   29.61R                  
$$

LSZ147-162-181600-
LAKE SUPERIOR
  
STATION/POSITION TIME  TEMP    WIND        PRES    WAVE
                       AIR SEA DIR/SP/G            HT/PER
                 (UTC) (F)     (DEG/KT/KT) (MB)    (FT/S)
$$
 
LMZ867-665-643>646-181600-
LAKE MICHIGAN
  
STATION/POSITION TIME  TEMP    WIND        PRES    WAVE
                       AIR SEA DIR/SP/G            HT/PER
                 (UTC) (F)     (DEG/KT/KT) (MB)    (FT/S)
NORTHPORT PIER   1440   37     290/  5/  7 1001.4R
KEWAUNEE LAKESHO 1424   39     340/  9/ 14 1000.5
SHEBOYGAN LAKESH 1400   46     300/ 12/ 15 1000.5R
KENOSHA   LAKESH 1400   54     290/  9/ 13 1000.7
$$

TC  - TEMPERATURE IN CELSIUS
VSB - VISIBILITY IN STATUTE MILES
WCI - WIND CHILL INDEX
HX  - HEAT INDEX